Regional Weather Roundup
Issued by NWS Bismarck, ND

Home | Current Version | Previous Version | Text Only | Print | Product List | Glossary On
Versions: 1 2 3 4 5 6 7 8 9 10 11 12 13 14 15 16 17 18 19 20 21 22 23 24 25 26 27 28 29 30 31 32 33 34 35 36 37 38 39 40 41 42 43 44 45 46 47 48 49 50
000
ASUS43 KBIS 260410
RWRBIS

NWR BROADCAST TEXT
NATIONAL WEATHER SERVICE BISMARCK ND
1100 PM CDT WED MAY 25 2016

NOTE: "FAIR" INDICATES FEW OR NO CLOUDS BELOW 12,000 FEET WITH NO
SIGNIFICANT WEATHER AND/OR OBSTRUCTIONS TO VISIBILITY.


CITY           SKY/WX    TMP DP  RH WIND       PRES   REMARKS
WILLISTON      CLEAR     48  45  89 NW6       29.82R
MINOT          CLOUDY    59  54  83 S6        29.74F
MINOT AFB      CLOUDY    56  53  88 S1        29.73F
BISMARCK       CLOUDY    58  51  78 W10       29.79S
DICKINSON      CLEAR     45  40  82 W6        29.82R
GARRISON         N/A     56  52  86 W3        29.78R
HETTINGER ARPT CLEAR     44  39  82 CALM      29.86R
JAMESTOWN      LGT RAIN  58  57  97 SE7       29.71F
BEACH          FAIR      45  43  93 CALM      29.88S
CARRINGTON     FAIR      57  55  94 CALM      29.77R
HAZEN          MOCLDY    54  48  82 W5        29.81S
LINTON           N/A     55  55 100 W9          N/A
MANDAN         CLOUDY    52  50  93 NW8       29.80R
OAKES            N/A    N/A N/A N/A MISG        N/A
RUGBY          MOCLDY    54  54 100 NE6       29.75S
STANLEY        CLOUDY    52  52 100 NW8G16    29.80R FOG
WATFORD CITY   FAIR      48  46  93 CALM      29.82S
$$

CITY           SKY/WX    TMP DP  RH WIND       PRES   REMARKS
GRAND FORKS    CLOUDY    59  56  89 W12       29.68F
GRAND FORKS AF CLOUDY    58  58 100 W7        29.69S
DEVILS LAKE    CLOUDY    56  54  93 NE7       29.73F
FARGO          CLOUDY    62  58  86 S6        29.74R
CANDO          CLOUDY    55  55 100 NE5       29.78R
CAVALIER       LGT RAIN  57  57 100 NW13      29.67F
GRAFTON        CLOUDY    57  57 100 NW12      29.68S FOG
GWINNER        FAIR      55  54  94 N5        29.77F
LANGDON        MOCLDY    55  55 100 N12       29.72F
ROLLA          CLOUDY    54  54 100 NE7       29.78F
WALHALLA       LGT RAIN  55  55 100 NW14      29.70F
$$

CITY           SKY/WX    TMP DP  RH WIND       PRES   REMARKS
ABERDEEN       CLEAR     58  53  84 SW5       29.78R
MOBRIDGE       CLEAR     55  49  80 W6        29.79R
BUFFALO          N/A     54  44  69 NW6       29.81R
RAPID CITY     CLEAR     50  47  89 N8        29.90S
GLASGOW        PTCLDY    52  44  74 E5        29.83R
SIDNEY         CLEAR     52  46  82 W8        29.82S
WOLF POINT     PTCLDY    54  47  77 CALM      29.83S
GLENDIVE       CLOUDY    57  46  67 CALM      29.86S
MILES CITY     CLEAR     53  46  77 S6        29.85S
BAKER          MOCLDY    51  44  77 W8        29.86S
$$

CITY           SKY/WX    TMP DP  RH WIND       PRES   REMARKS
BILLINGS       CLOUDY    51  43  74 NE8       29.94R
GREAT FALLS    CLEAR     48  42  80 W5        29.93R
REGINA         LGT RAIN  54  52  94 NE10G18   29.85R
ESTEVAN        LGT RAIN  54  52  94 E14       29.79R
$$





USA.gov is the U.S. government's official web portal to all federal, state and local government web resources and services.